Flag for Canada Weather past 2 weeks in Chatham-Kent, Ontario, Canada

Now
71 °F

Mild.


Feels Like: 69 °F
Forecast: 66 / 76 °F
Wind: 2 mph from Northwest

Location: Erieau

Current Time: Aug 21, 2014 at 12:44:05 AM

Latest Report: Aug 21, 2014 at 12:00 AM


Visibility: N/A

Pressure: 29.93 "Hg

Humidity: 86%

Dew point: 66 °F

Location of Chatham-KentLocation

Historic Weather in Chatham-Kent — Graph

°F

Chatham-Kent temperature yesterday

Maximum temperature yesterday: 77 °F (at 3:00 PM)
Minimum temperature yesterday: 69 °F (at 7:00 AM)
Average temperature yesterday: 72 °F

Past Weeks' High & Low Weather Summary

 TemperatureHumidityPressure
High77 °F (Aug 20, 3:00 PM)96% (Aug 12, 8:00 AM)30.16 "Hg (Aug 12, 8:00 AM)
Low53 °F (Aug 15, 7:00 AM)31% (Aug 15, 4:00 PM)29.67 "Hg (Aug 12, 4:00 PM)
Average69 °F75%29.95 "Hg
* Reported Aug 5 11:00 PM — Aug 20 11:00 PM, Chatham-Kent, Weather by CustomWeather, © 2014

Note: Actual official high and low records may vary slightly from our data, if they occured in-between our weather recording intervals... More about our weather records

Advertising

Chatham-Kent weather history for previous 24 hours

 ConditionsComfort  
Time TempWeatherWind HumidityBarometerVisibility
11:00 PM
Aug 20
72 °FMild.5 mph90%29.92 "HgN/A
10:00 PM71 °FMild.1 mph96%29.90 "HgN/A
9:00 PM73 °FMild.5 mph88%29.88 "HgN/A
8:00 PM72 °FMild.1 mph92%29.88 "HgN/A
7:00 PM74 °FMild.2 mph82%29.86 "HgN/A
6:00 PM76 °FMild.6 mph81%29.86 "HgN/A
5:00 PM76 °FMild.5 mph82%29.85 "HgN/A
4:00 PM77 °FMild.5 mph80%29.85 "HgN/A
3:00 PM77 °FMild.3 mph79%29.86 "HgN/A
2:00 PM73 °FMild.10 mph85%29.86 "HgN/A
1:00 PM72 °FMild.9 mph85%29.86 "HgN/A
12:00 PM72 °FMild.10 mph87%29.85 "HgN/A
11:00 AM72 °FMild.13 mph86%29.85 "HgN/A
10:00 AM71 °FMild.12 mph85%29.84 "HgN/A
9:00 AM71 °FMild.12 mph87%29.84 "HgN/A
8:00 AM70 °FMild.14 mph88%29.83 "HgN/A
7:00 AM69 °FMild.14 mph92%29.82 "HgN/A
6:00 AM71 °FMild.6 mph91%29.80 "HgN/A
5:00 AM71 °FMild.5 mph92%29.79 "HgN/A
4:00 AM71 °FMild.5 mph92%29.79 "HgN/A
3:00 AM71 °FMild.12 mph92%29.78 "HgN/A
2:00 AM71 °FMild.8 mph89%29.80 "HgN/A
1:00 AM70 °FMild.1 mph91%29.80 "HgN/A
12:00 AM70 °FMild.1 mph90%29.81 "HgN/A
Weather by CustomWeather, © 2014

See weather overviewHow to use our weather pages